Location: Oshawa
(43.9000°N, 78.8670°W)
Time: 05:13:00
(UTC-04:00)

Cosmos 1408 Rocket - Visible Passes

Search period start: 26 March 2017 00:00
Search period end: 05 April 2017 00:00
Orbit: 602 x 631 km, 82.6° (Epoch: 24 March)

Date Brightness Start Highest point End Pass type
(mag) Time Alt. Az. Time Alt. Az. Time Alt. Az.
26 Mar 3.5 20:59:26 10° N 21:03:56 77° E 21:07:46 14° SSE visible
26 Mar 6.7 22:40:33 10° WNW 22:41:01 10° W 22:41:29 10° W visible
27 Mar 4.1 21:15:59 10° NNW 21:20:23 59° W 21:24:46 10° S visible
28 Mar 5.3 21:32:45 10° NNW 21:36:45 32° W 21:40:43 10° SSW visible
29 Mar 4.0 20:11:18 10° N 20:15:34 41° ENE 20:19:47 10° SSE visible
29 Mar 6.2 21:49:54 10° NW 21:53:01 19° W 21:56:08 10° SW visible
30 Mar 3.5 20:27:37 10° N 20:32:07 75° E 20:36:34 10° SSE visible
30 Mar 6.8 22:08:20 10° WNW 22:09:12 11° W 22:10:06 10° W visible
31 Mar 4.2 20:44:09 10° NNW 20:48:34 61° W 20:52:57 10° S visible
01 Apr 5.4 21:00:55 10° NNW 21:04:56 33° W 21:08:56 10° SSW visible
02 Apr 6.4 21:18:03 10° NW 21:21:13 19° W 21:24:23 10° SW visible
03 Apr 6.9 21:36:16 10° WNW 21:37:24 11° W 21:38:32 10° W visible
04 Apr 4.2 20:12:19 10° NNW 20:16:45 63° W 20:21:08 10° S visible
